Location: Montreal
(45.5000°N, 73.5833°W)
Time: 10:48:58
(UTC-04:00)

Tiangong 1 - Pass Details

Date: 13 October 2017
Orbit: 294 x 320 km, 42.8° (Epoch: 18 October)

Event Time Altitude Azimuth Distance (km) Brightness Sun altitude
Rises 19:54:03 0° 270° (W) 2,039 6.4 -18.7°
Reaches altitude 10° 19:56:18 10° 253° (WSW) 1,202 4.5 -19.1°
Enters shadow 19:58:16 20° 206° (SSW) 783 2.8 -19.4°
